Погода в Ботулу

Россия / Республика Саха (Якутия)     64°08′17″N   119°46′36″E
темп.,
°C
ветер,
м/с
пор.,
м/с
влажн.,
%
обл.,
%
осадки,
мм/ч
давл.,
гПа
погр.,
м
1 марта, пн
пн100:00−32з379694 0.0 1029160
03:00−34з259697 0.0 1029121
06:00−35зюз2596100 0.0 1029111
09:00−36зюз369799 0.0 1029138
12:00−32з3594100 0.0 1029275
15:00−30зюз2593100 0.0 1027352
18:00−32зюз2297100 0.0 102821
21:00−35зюз229985 0.0 102819
2 марта, вт
вт200:00−37з1210018 0.0 102819
03:00−38з1210027 0.0 102819
06:00−39зюз1210058 0.0 102718
09:00−39зсз119952 0.0 102718
12:00−32сз119342 0.0 1027205
15:00−30зсз008964 0.0 1026339
18:00−34с119585 0.0 102619
21:00−37св119868 0.0 102719
3 марта, ср
ср300:00−38ссв119869 0.0 102719
03:00−38ссв129772 0.0 102718
06:00−40с129761 0.0 102718
09:00−40ссз229753 0.0 102719
12:00−34ссз239258 0.0 1027251
15:00−32сз249374 0.0 1026344
18:00−32сз269598 0.0 1026309
21:00−32сз369699 0.1 1026311
4 марта, чт
чт400:00−31зсз3897100 0.1 1025321
03:00−31зсз4895100 0.3 1025369
06:00−32зсз4993100 0.0 1024377
09:00−32зсз41193100 0.0 1024418
12:00−30зсз51092100 0.0 1024517
15:00−28сз5992100 0.0 1024683
18:00−28сз4993100 0.0 1026675
21:00−30сз3997100 0.1 1028347
5 марта, пт
пт500:00−33сз379896 0.0 1028153
03:00−36зсз379773 0.0 1030145
06:00−37зсз25972 0.0 1031107
09:00−36зсз37971 0.0 1032175
12:00−31зсз359527 0.0 1031304
15:00−27з369452 0.0 1031378
18:00−29з239786 0.0 103174
21:00−32з239743 0.0 103220